W6DRZ Weather Reports


time (UTC)temp
C
wind
direction
speed
KPH
gust
KPH
rain 1hr
cm
rain 24hr
cm
rain mn
cm
humidity
%
barometer
mb
20260503211029 16 245 14.5 30.6 0.00 0.00 0.00 65 1012.7
20260503210530 16 288 11.3 24.1 0.00 0.00 0.00 66 1012.7
20260503210028 16 229 11.3 22.5 0.00 0.00 0.00 64 1012.7
20260503205912 16 240 11.3 25.7 0.00 0.00 0.00 65 1012.7
20260503205023 16 167 12.9 27.4 0.00 0.00 0.00 64 1012.7
20260503204522 16 238 12.9 27.4 0.00 0.00 0.00 65 1012.7
20260503204024 16 272 11.3 22.5 0.00 0.00 0.00 66 1012.8
20260503203523 16 286 11.3 22.5 0.00 0.00 0.00 64 1012.8
20260503203022 15 319 11.3 22.5 0.00 0.00 0.00 68 1012.8
20260503202520 15 284 12.9 25.7 0.00 0.00 0.00 68 1012.9
20260503202019 15 247 11.3 25.7 0.00 0.00 0.00 68 1012.9
20260503201520 15 296 9.7 24.1 0.00 0.00 0.00 68 1012.9
20260503201021 16 197 9.7 22.5 0.00 0.00 0.00 67 1012.9
20260503200525 16 177 12.9 22.5 0.00 0.00 0.00 66 1012.8
20260503200023 15 221 14.5 22.5 0.00 0.00 0.00 65 1012.8
20260503195518 16 273 11.3 24.1 0.00 0.00 0.00 65 1012.7
20260503195018 16 255 8.0 24.1 0.00 0.00 0.00 66 1012.8
20260503194515 16 180 6.4 16.1 0.00 0.00 0.00 65 1013.0
20260503194334 16 227 6.4 14.5 0.00 0.00 0.00 65 1012.9
20260503193512 16 212 8.0 17.7 0.00 0.00 0.00 66 1013.0
20260503193013 15 260 9.7 22.5 0.00 0.00 0.00 68 1013.0
20260503192512 15 264 11.3 22.5 0.00 0.00 0.00 65 1012.9
20260503192010 15 260 9.7 16.1 0.00 0.00 0.00 67 1012.9
20260503191507 15 286 8.0 16.1 0.00 0.00 0.00 67 1013.1
20260503191006 16 227 8.0 14.5 0.00 0.00 0.00 64 1013.1
20260503190509 16 234 9.7 20.9 0.00 0.00 0.00 65 1013.1
20260503190124 16 290 8.0 20.9 0.00 0.00 0.00 66 1013.1
20260503185008 16 221 9.7 19.3 0.00 0.00 0.00 62 1013.0
20260503184505 16 169 11.3 20.9 0.00 0.00 0.00 64 1013.1
20260503184333 16 207 9.7 20.9 0.00 0.00 0.00 65 1013.1
20260503183504 15 205 9.7 17.7 0.00 0.00 0.00 67 1013.2
20260503183004 15 196 8.0 17.7 0.00 0.00 0.00 66 1013.2
20260503182458 15 234 8.0 16.1 0.00 0.00 0.00 67 1013.1
20260503181952 15 214 8.0 16.1 0.00 0.00 0.00 66 1013.1
20260503181549 15 284 8.0 16.1 0.00 0.00 0.00 67 1013.0
20260503180442 15 209 8.0 20.9 0.00 0.00 0.00 69 1013.0
20260503175936 15 202 8.0 22.5 0.00 0.00 0.00 69 1013.0
20260503175437 15 272 9.7 22.5 0.00 0.00 0.00 69 1013.0
20260503174939 15 296 8.0 19.3 0.00 0.00 0.00 70 1012.9
20260503174432 14 276 8.0 17.7 0.00 0.00 0.00 72 1013.1
20260503174306 14 268 9.7 17.7 0.00 0.00 0.00 73 1012.9
20260503173431 14 219 9.7 17.7 0.00 0.00 0.00 72 1012.9
20260503172933 13 298 9.7 17.7 0.00 0.00 0.00 73 1013.0
20260503172433 14 265 11.3 20.9 0.00 0.00 0.00 72 1012.9
20260503171931 14 250 9.7 22.5 0.00 0.00 0.00 74 1012.9
20260503171432 14 284 6.4 22.5 0.00 0.00 0.00 75 1013.0
20260503171051 14 196 6.4 16.1 0.00 0.00 0.00 74 1013.0
20260503170314 14 271 4.8 14.5 0.00 0.00 0.00 77 1013.0
20260503150850 12 171 0.0 1.6 0.00 0.00 0.00 87 1012.5
20260503150353 11 171 0.0 3.2 0.00 0.00 0.00 87 1012.4
20260503131340 11 279 0.0 0.0 0.00 0.00 0.00 88 1011.2
20260503130838 11 279 0.0 0.0 0.00 0.00 0.00 87 1011.0
20260503130337 11 279 0.0 0.0 0.00 0.00 0.00 87 1011.1
20260503130219 11 279 0.0 0.0 0.00 0.00 0.00 87 1010.9
20260503120222 11 225 0.0 0.0 0.00 0.00 0.00 86 1011.0
20260503110704 11 225 1.6 4.8 0.00 0.00 0.00 86 1011.0
20260503110147 11 313 3.2 6.4 0.00 0.00 0.00 86 1011.1
20260503090234 11 307 6.4 17.7 0.00 0.00 0.00 85 1011.2
20260503081239 11 254 3.2 4.8 0.00 0.00 0.00 84 1011.9
20260503081118 11 250 1.6 4.8 0.00 0.00 0.00 84 1011.9
20260503080241 11 290 1.6 4.8 0.00 0.00 0.00 84 1011.9
20260503072731 11 264 3.2 11.3 0.00 0.00 0.00 84 1012.0
20260503072230 11 276 3.2 8.0 0.00 0.00 0.00 84 1012.0
20260503071719 11 259 3.2 8.0 0.00 0.00 0.00 84 1012.0
20260503071212 11 294 3.2 9.7 0.00 0.00 0.00 84 1011.9
20260503070714 11 292 3.2 9.7 0.00 0.00 0.00 84 1011.9
20260503070219 11 304 3.2 9.7 0.00 0.00 0.00 84 1012.0
20260503054645 11 286 9.7 19.3 0.00 0.00 0.00 83 1012.3
20260503054144 11 247 9.7 20.9 0.00 0.00 0.00 83 1012.3
20260503053648 11 300 9.7 20.9 0.00 0.00 0.00 83 1012.3
20260503053144 11 272 11.3 19.3 0.00 0.00 0.00 84 1012.2
20260503052645 11 238 11.3 19.3 0.00 0.00 0.00 83 1012.4
20260503052518 11 268 11.3 20.9 0.00 0.00 0.00 83 1012.3
20260503051948 11 275 14.5 22.5 0.00 0.00 0.00 83 1012.4
20260503051300 11 294 14.5 22.5 0.00 0.00 0.00 82 1012.4
20260503050145 11 262 16.1 25.7 0.00 0.00 0.00 83 1012.3
20260503045644 11 277 16.1 25.7 0.00 0.00 0.00 83 1012.3
20260503045144 11 277 14.5 25.7 0.00 0.00 0.00 83 1012.4
20260503044644 11 265 12.9 22.5 0.00 0.00 0.00 83 1012.3
20260503044145 11 276 12.9 22.5 0.00 0.00 0.00 83 1012.3
20260503044037 11 269 12.9 22.5 0.00 0.00 0.00 83 1012.3
20260503043143 11 281 12.9 22.5 0.00 0.00 0.00 83 1012.3
20260503042643 11 261 12.9 22.5 0.00 0.00 0.00 83 1012.3
20260503042143 11 282 12.9 24.1 0.00 0.00 0.00 83 1012.2
20260503042031 11 272 14.5 24.1 0.00 0.00 0.00 83 1012.2
20260503041301 11 250 14.5 29.0 0.00 0.00 0.00 82 1012.2
20260503040144 11 302 16.1 22.5 0.00 0.00 0.00 82 1012.0
20260503035643 11 284 16.1 25.7 0.00 0.00 0.00 81 1012.1
20260503035143 11 288 16.1 27.4 0.00 0.00 0.00 81 1012.0
20260503034643 11 267 16.1 27.4 0.00 0.00 0.00 81 1012.0
20260503034147 11 252 16.1 29.0 0.00 0.00 0.00 82 1012.0
20260503033641 11 271 17.7 30.6 0.00 0.00 0.00 82 1012.0
20260503033141 11 269 17.7 35.4 0.00 0.00 0.00 82 1011.9
20260503032642 11 254 16.1 35.4 0.00 0.00 0.00 82 1011.9
20260503032142 11 265 14.5 24.1 0.00 0.00 0.00 82 1011.9
20260503031642 11 261 16.1 33.8 0.00 0.00 0.00 82 1011.8
20260503031140 11 270 19.3 33.8 0.00 0.00 0.00 82 1011.8
20260503030637 11 273 19.3 32.2 0.00 0.00 0.00 82 1011.7
20260503030136 11 294 19.3 32.2 0.00 0.00 0.00 81 1011.5
20260503030019 11 284 19.3 33.8 0.00 0.00 0.00 81 1011.5
20260503025137 11 275 19.3 33.8 0.00 0.00 0.00 81 1011.2
20260503024642 11 311 19.3 32.2 0.00 0.00 0.00 81 1011.2
20260503024136 11 246 17.7 30.6 0.00 0.00 0.00 81 1011.2
20260503023637 12 259 16.1 32.2 0.00 0.00 0.00 81 1011.1
20260503023537 12 267 19.3 37.0 0.00 0.00 0.00 81 1011.0
20260503022636 12 236 19.3 37.0 0.00 0.00 0.00 80 1011.1
20260503022136 12 273 17.7 33.8 0.00 0.00 0.00 80 1011.0
20260503021636 12 297 17.7 32.2 0.00 0.00 0.00 79 1011.0
20260503021136 12 265 19.3 32.2 0.00 0.00 0.00 79 1011.1
20260503020636 12 248 17.7 30.6 0.00 0.00 0.00 79 1011.2
20260503020245 12 281 17.7 38.6 0.00 0.00 0.00 78 1011.2
20260503020206 12 289 17.7 30.6 0.00 0.00 0.00 78 1011.1
20260503014636 12 267 16.1 30.6 0.00 0.00 0.00 77 1011.4
20260503014137 12 248 16.1 30.6 0.00 0.00 0.00 77 1011.2
20260503014006 13 281 14.5 33.8 0.00 0.00 0.00 77 1011.2
20260503013136 13 323 14.5 33.8 0.00 0.00 0.00 77 1011.2
20260503012635 13 283 14.5 27.4 0.00 0.00 0.00 76 1011.2
20260503012135 13 283 12.9 24.1 0.00 0.00 0.00 76 1011.2
20260503011636 13 270 11.3 24.1 0.00 0.00 0.00 76 1011.4
20260503011134 13 309 12.9 25.7 0.00 0.00 0.00 76 1011.4
20260503010633 13 289 12.9 25.7 0.00 0.00 0.00 76 1011.2
20260503010524 13 298 11.3 22.5 0.00 0.00 0.00 75 1011.4
20260503010026 13 256 12.9 29.0 0.00 0.00 0.00 75 1011.2
20260503005133 13 242 14.5 33.8 0.00 0.00 0.00 75 1011.2
20260503004633 14 275 16.1 33.8 0.00 0.00 0.00 74 1011.4
20260503004129 14 247 17.7 32.2 0.00 0.00 0.00 75 1011.2
20260503003629 14 283 19.3 32.2 0.00 0.00 0.00 75 1011.4
20260503003131 13 272 19.3 37.0 0.00 0.00 0.00 76 1011.5
20260503002630 13 274 17.7 37.0 0.00 0.00 0.00 76 1011.6
20260503002523 13 258 16.1 32.2 0.00 0.00 0.00 76 1011.5
20260503001803 13 280 16.1 30.6 0.00 0.00 0.00 75 1011.7
20260503001023 15 249 12.9 30.6 0.00 0.00 0.00 73 1011.7
20260503000258 15 263 12.9 30.6 0.00 0.00 0.00 73 1011.7
20260502235130 15 272 16.1 27.4 0.00 0.00 0.00 73 1011.7
20260502235004 15 217 17.7 27.4 0.00 0.00 0.00 74 1011.6
20260502234131 15 255 17.7 29.0 0.00 0.00 0.00 73 1011.7
20260502233629 15 250 17.7 30.6 0.00 0.00 0.00 73 1011.7
20260502233548 15 274 17.7 30.6 0.00 0.00 0.00 72 1011.8
20260502232630 16 223 16.1 25.7 0.00 0.00 0.00 72 1011.8
20260502232130 16 263 16.1 25.7 0.00 0.00 0.00 71 1011.7
20260502231630 16 254 16.1 27.4 0.00 0.00 0.00 71 1011.9
20260502231129 16 234 17.7 30.6 0.00 0.00 0.00 72 1011.9
20260502230629 16 309 17.7 30.6 0.00 0.00 0.00 72 1011.9
20260502230130 16 281 19.3 30.6 0.00 0.00 0.00 72 1012.0
20260502225629 16 265 17.7 30.6 0.00 0.00 0.00 71 1012.1
20260502225129 16 260 19.3 30.6 0.00 0.00 0.00 72 1012.2
20260502224630 16 302 20.9 33.8 0.00 0.00 0.00 71 1012.2
20260502224131 16 274 19.3 33.8 0.00 0.00 0.00 72 1012.2
20260502224008 16 237 17.7 29.0 0.00 0.00 0.00 69 1012.2
20260502223256 17 271 12.9 29.0 0.00 0.00 0.00 69 1012.2
20260502222526 16 221 11.3 24.1 0.00 0.00 0.00 70 1012.3
20260502221625 16 236 12.9 24.1 0.00 0.00 0.00 71 1012.5
20260502221525 16 277 12.9 22.5 0.00 0.00 0.00 70 1012.5
20260502220623 16 279 14.5 25.7 0.00 0.00 0.00 71 1012.7
20260502220124 16 274 16.1 25.7 0.00 0.00 0.00 71 1012.7
20260502215623 16 292 12.9 25.7 0.00 0.00 0.00 72 1012.7
20260502215135 16 270 14.5 24.1 0.00 0.00 0.00 72 1012.7
20260502214625 16 241 16.1 24.1 0.00 0.00 0.00 72 1012.8
20260502214123 16 231 16.1 25.7 0.00 0.00 0.00 70 1012.8
20260502213620 16 279 16.1 29.0 0.00 0.00 0.00 71 1012.9
20260502213117 16 279 14.5 29.0 0.00 0.00 0.00 71 1012.8
20260502212623 16 269 16.1 32.2 0.00 0.00 0.00 73 1012.8
20260502212119 16 225 17.7 32.2 0.00 0.00 0.00 72 1012.9
20260502211944 15 253 14.5 29.0 0.00 0.00 0.00 73 1013.0